PWSweather.com
Personal Weather Stations
Station Observations
KMAWOBUR2
West Side, Woburn, MA 01801

West SideWoburn, MA 01801

Lat: 42.458, Lon: -71.1955

Elevation: 160

Station Type: DAVIS/Vantage Pro2

http://pauland.net

High Low Average
Temperature 33.7°F0.9°C 14.3°F-9.8°C 24.0°F-4.4°C
Dew Point 20.6°F-6.3°C -7.2°F-21.8°C 3.3°F-15.9°C
Winds 6.0 mph 9.7 kmh Calm Calm 2.0 mph SE3.2 kmh SE
Wind Gusts 14.0 mph22.5 kmh -- 6.0 mph9.7 kmh
Humidity 59% 22% 42%
Pressure 30.37 in1028.4 mb 29.94 in1013.9 mb -
Precipitation 0.00 in0.0 mm - -
Hour Temp Dew Point Humidity Winds Wind Gusts Pressure Precip Precip Rate Daily Precip Total
12:00 AM 33.1°F0.6°C 20.4°F-6.4°C 59% 3.0 mph SW4.8 kmh SW 8.0 mph12.9 kmh 29.94 in1013.9 mb 0.00 in0.0 mm 0.00 in0.0 mm 0.00 in0.0 mm
12:05 AM 33.2°F0.7°C 20.4°F-6.4°C 59% 2.0 mph WSW3.2 kmh WSW 7.0 mph11.3 kmh 29.94 in1013.9 mb 0.00 in0.0 mm 0.00 in0.0 mm 0.00 in0.0 mm
12:10 AM 33.2°F0.7°C 20.0°F-6.7°C 58% 1.0 mph W1.6 kmh W 5.0 mph8.0 kmh 29.94 in1013.9 mb 0.00 in0.0 mm 0.00 in0.0 mm 0.00 in0.0 mm
12:15 AM 33.4°F0.8°C 20.2°F-6.6°C 58% 3.0 mph W4.8 kmh W 7.0 mph11.3 kmh 29.95 in1014.2 mb 0.00 in0.0 mm 0.00 in0.0 mm 0.00 in0.0 mm
12:20 AM 33.5°F0.8°C 20.3°F-6.5°C 58% 2.0 mph WSW3.2 kmh WSW 5.0 mph8.0 kmh 29.95 in1014.2 mb 0.00 in0.0 mm 0.00 in0.0 mm 0.00 in0.0 mm
12:25 AM 33.7°F0.9°C 20.1°F-6.6°C 57% 2.0 mph WSW3.2 kmh WSW 8.0 mph12.9 kmh 29.95 in1014.2 mb 0.00 in0.0 mm 0.00 in0.0 mm 0.00 in0.0 mm
12:30 AM 33.7°F0.9°C 20.1°F-6.6°C 57% 1.0 mph WSW1.6 kmh WSW 5.0 mph8.0 kmh 29.95 in1014.2 mb 0.00 in0.0 mm 0.00 in0.0 mm 0.00 in0.0 mm
12:35 AM 33.5°F0.8°C 20.3°F-6.5°C 58% Calm Calm -- 29.95 in1014.2 mb 0.00 in0.0 mm 0.00 in0.0 mm 0.00 in0.0 mm
12:40 AM 33.4°F0.8°C 20.2°F-6.6°C 58% 1.0 mph WSW1.6 kmh WSW 4.0 mph6.4 kmh 29.95 in1014.2 mb 0.00 in0.0 mm 0.00 in0.0 mm 0.00 in0.0 mm
12:45 AM 33.4°F0.8°C 20.2°F-6.6°C 58% 1.0 mph WSW1.6 kmh WSW 7.0 mph11.3 kmh 29.96 in1014.6 mb 0.00 in0.0 mm 0.00 in0.0 mm 0.00 in0.0 mm
12:50 AM 33.4°F0.8°C 20.6°F-6.3°C 59% 3.0 mph SW4.8 kmh SW 10.0 mph16.1 kmh 29.96 in1014.6 mb 0.00 in0.0 mm 0.00 in0.0 mm 0.00 in0.0 mm
12:55 AM 33.7°F0.9°C 20.5°F-6.4°C 58% 1.0 mph WSW1.6 kmh WSW 7.0 mph11.3 kmh 29.96 in1014.6 mb 0.00 in0.0 mm 0.00 in0.0 mm 0.00 in0.0 mm
01:00 AM 33.7°F0.9°C 20.1°F-6.6°C 57% 1.0 mph WSW1.6 kmh WSW 5.0 mph8.0 kmh 29.97 in1014.9 mb 0.00 in0.0 mm 0.00 in0.0 mm 0.00 in0.0 mm
01:05 AM 33.5°F0.8°C 20.3°F-6.5°C 58% 1.0 mph WNW1.6 kmh WNW 5.0 mph8.0 kmh 29.97 in1014.9 mb 0.00 in0.0 mm 0.00 in0.0 mm 0.00 in0.0 mm
01:10 AM 33.2°F0.7°C 20.0°F-6.7°C 58% 1.0 mph SSW1.6 kmh SSW 6.0 mph9.7 kmh 29.97 in1014.9 mb 0.00 in0.0 mm 0.00 in0.0 mm 0.00 in0.0 mm
01:15 AM 32.8°F0.4°C 20.1°F-6.6°C 59% 1.0 mph NNW1.6 kmh NNW 7.0 mph11.3 kmh 29.97 in1014.9 mb 0.00 in0.0 mm 0.00 in0.0 mm 0.00 in0.0 mm
01:20 AM 32.5°F0.3°C 19.8°F-6.8°C 59% 1.0 mph WNW1.6 kmh WNW 5.0 mph8.0 kmh 29.97 in1014.9 mb 0.00 in0.0 mm 0.00 in0.0 mm 0.00 in0.0 mm
01:25 AM 32.7°F0.4°C 20.0°F-6.7°C 59% 1.0 mph WNW1.6 kmh WNW 7.0 mph11.3 kmh 29.97 in1014.9 mb 0.00 in0.0 mm 0.00 in0.0 mm 0.00 in0.0 mm
01:30 AM 32.8°F0.4°C 20.1°F-6.6°C 59% 2.0 mph W3.2 kmh W 5.0 mph8.0 kmh 29.98 in1015.2 mb 0.00 in0.0 mm 0.00 in0.0 mm 0.00 in0.0 mm
01:35 AM 32.7°F0.4°C 20.0°F-6.7°C 59% Calm Calm 2.0 mph3.2 kmh 29.98 in1015.2 mb 0.00 in0.0 mm 0.00 in0.0 mm 0.00 in0.0 mm
01:40 AM 32.4°F0.2°C 19.7°F-6.8°C 59% Calm Calm 2.0 mph3.2 kmh 29.98 in1015.2 mb 0.00 in0.0 mm 0.00 in0.0 mm 0.00 in0.0 mm
01:45 AM 32.1°F0.1°C 19.4°F-7.0°C 59% Calm Calm 5.0 mph8.0 kmh 29.99 in1015.6 mb 0.00 in0.0 mm 0.00 in0.0 mm 0.00 in0.0 mm
01:50 AM 31.9°F-0.1°C 19.2°F-7.1°C 59% Calm Calm 3.0 mph4.8 kmh 29.99 in1015.6 mb 0.00 in0.0 mm 0.00 in0.0 mm 0.00 in0.0 mm
01:55 AM 31.8°F-0.1°C 19.1°F-7.2°C 59% 1.0 mph NNW1.6 kmh NNW 7.0 mph11.3 kmh 29.99 in1015.6 mb 0.00 in0.0 mm 0.00 in0.0 mm 0.00 in0.0 mm
02:00 AM 31.8°F-0.1°C 18.7°F-7.4°C 58% 1.0 mph WSW1.6 kmh WSW 3.0 mph4.8 kmh 30.00 in1015.9 mb 0.00 in0.0 mm 0.00 in0.0 mm 0.00 in0.0 mm
02:05 AM 32.1°F0.1°C 18.2°F-7.7°C 56% 2.0 mph NNW3.2 kmh NNW 9.0 mph14.5 kmh 30.00 in1015.9 mb 0.00 in0.0 mm 0.00 in0.0 mm 0.00 in0.0 mm
02:10 AM 32.2°F0.1°C 17.4°F-8.1°C 54% 2.0 mph NW3.2 kmh NW 5.0 mph8.0 kmh 30.00 in1015.9 mb 0.00 in0.0 mm 0.00 in0.0 mm 0.00 in0.0 mm
02:15 AM 32.4°F0.2°C 16.3°F-8.7°C 51% 3.0 mph NW4.8 kmh NW 7.0 mph11.3 kmh 30.00 in1015.9 mb 0.00 in0.0 mm 0.00 in0.0 mm 0.00 in0.0 mm
02:20 AM 32.5°F0.3°C 16.4°F-8.7°C 51% 3.0 mph NNW4.8 kmh NNW 12.0 mph19.3 kmh 30.00 in1015.9 mb 0.00 in0.0 mm 0.00 in0.0 mm 0.00 in0.0 mm
02:25 AM 32.9°F0.5°C 15.9°F-8.9°C 49% 3.0 mph NNW4.8 kmh NNW 7.0 mph11.3 kmh 30.00 in1015.9 mb 0.00 in0.0 mm 0.00 in0.0 mm 0.00 in0.0 mm
02:30 AM 33.1°F0.6°C 15.6°F-9.1°C 48% 2.0 mph NNW3.2 kmh NNW 7.0 mph11.3 kmh 30.01 in1016.3 mb 0.00 in0.0 mm 0.00 in0.0 mm 0.00 in0.0 mm
02:35 AM 33.1°F0.6°C 15.6°F-9.1°C 48% 1.0 mph NNW1.6 kmh NNW 4.0 mph6.4 kmh 30.01 in1016.3 mb 0.00 in0.0 mm 0.00 in0.0 mm 0.00 in0.0 mm
02:40 AM 32.9°F0.5°C 15.4°F-9.2°C 48% 2.0 mph NNE3.2 kmh NNE 6.0 mph9.7 kmh 30.01 in1016.3 mb 0.00 in0.0 mm 0.00 in0.0 mm 0.00 in0.0 mm
02:45 AM 32.7°F0.4°C 15.2°F-9.3°C 48% 2.0 mph NW3.2 kmh NW 7.0 mph11.3 kmh 30.02 in1016.6 mb 0.00 in0.0 mm 0.00 in0.0 mm 0.00 in0.0 mm
02:50 AM 32.5°F0.3°C 15.0°F-9.4°C 48% 2.0 mph W3.2 kmh W 9.0 mph14.5 kmh 30.02 in1016.6 mb 0.00 in0.0 mm 0.00 in0.0 mm 0.00 in0.0 mm
02:55 AM 32.2°F0.1°C 15.2°F-9.3°C 49% 2.0 mph WNW3.2 kmh WNW 7.0 mph11.3 kmh 30.02 in1016.6 mb 0.00 in0.0 mm 0.00 in0.0 mm 0.00 in0.0 mm
03:00 AM 32.1°F0.1°C 15.1°F-9.4°C 49% 2.0 mph SW3.2 kmh SW 12.0 mph19.3 kmh 30.03 in1016.9 mb 0.00 in0.0 mm 0.00 in0.0 mm 0.00 in0.0 mm
03:05 AM 31.9°F-0.1°C 14.9°F-9.5°C 49% 1.0 mph SW1.6 kmh SW 4.0 mph6.4 kmh 30.03 in1016.9 mb 0.00 in0.0 mm 0.00 in0.0 mm 0.00 in0.0 mm
03:10 AM 31.8°F-0.1°C 14.8°F-9.6°C 49% 1.0 mph SW1.6 kmh SW 7.0 mph11.3 kmh 30.03 in1016.9 mb 0.00 in0.0 mm 0.00 in0.0 mm 0.00 in0.0 mm
03:15 AM 31.6°F-0.2°C 14.7°F-9.6°C 49% 2.0 mph WNW3.2 kmh WNW 6.0 mph9.7 kmh 30.04 in1017.3 mb 0.00 in0.0 mm 0.00 in0.0 mm 0.00 in0.0 mm
03:20 AM 31.6°F-0.2°C 14.7°F-9.6°C 49% 1.0 mph WSW1.6 kmh WSW 4.0 mph6.4 kmh 30.04 in1017.3 mb 0.00 in0.0 mm 0.00 in0.0 mm 0.00 in0.0 mm
03:25 AM 31.6°F-0.2°C 14.7°F-9.6°C 49% 1.0 mph WSW1.6 kmh WSW 5.0 mph8.0 kmh 30.04 in1017.3 mb 0.00 in0.0 mm 0.00 in0.0 mm 0.00 in0.0 mm
03:30 AM 31.5°F-0.3°C 14.6°F-9.7°C 49% 1.0 mph WSW1.6 kmh WSW 4.0 mph6.4 kmh 30.05 in1017.6 mb 0.00 in0.0 mm 0.00 in0.0 mm 0.00 in0.0 mm
03:35 AM 31.6°F-0.2°C 14.2°F-9.9°C 48% 3.0 mph WNW4.8 kmh WNW 7.0 mph11.3 kmh 30.05 in1017.6 mb 0.00 in0.0 mm 0.00 in0.0 mm 0.00 in0.0 mm
03:40 AM 31.6°F-0.2°C 14.2°F-9.9°C 48% 2.0 mph W3.2 kmh W 8.0 mph12.9 kmh 30.05 in1017.6 mb 0.00 in0.0 mm 0.00 in0.0 mm 0.00 in0.0 mm
03:45 AM 31.5°F-0.3°C 14.1°F-9.9°C 48% 3.0 mph WSW4.8 kmh WSW 7.0 mph11.3 kmh 30.06 in1017.9 mb 0.00 in0.0 mm 0.00 in0.0 mm 0.00 in0.0 mm
03:50 AM 31.3°F-0.4°C 13.9°F-10.1°C 48% 1.0 mph NNW1.6 kmh NNW 6.0 mph9.7 kmh 30.06 in1017.9 mb 0.00 in0.0 mm 0.00 in0.0 mm 0.00 in0.0 mm
03:55 AM 31.2°F-0.4°C 13.8°F-10.1°C 48% 2.0 mph NNW3.2 kmh NNW 6.0 mph9.7 kmh 30.06 in1017.9 mb 0.00 in0.0 mm 0.00 in0.0 mm 0.00 in0.0 mm
04:00 AM 31.2°F-0.4°C 13.3°F-10.4°C 47% 2.0 mph WNW3.2 kmh WNW 6.0 mph9.7 kmh 30.06 in1017.9 mb 0.00 in0.0 mm 0.00 in0.0 mm 0.00 in0.0 mm
04:05 AM 31.0°F-0.6°C 13.2°F-10.4°C 47% 1.0 mph 1.6 kmh 5.0 mph8.0 kmh 30.06 in1017.9 mb 0.00 in0.0 mm 0.00 in0.0 mm 0.00 in0.0 mm
04:10 AM 30.7°F-0.7°C 13.8°F-10.1°C 49% 1.0 mph SW1.6 kmh SW 5.0 mph8.0 kmh 30.06 in1017.9 mb 0.00 in0.0 mm 0.00 in0.0 mm 0.00 in0.0 mm
04:15 AM 30.4°F-0.9°C 13.6°F-10.2°C 49% 1.0 mph W1.6 kmh W 5.0 mph8.0 kmh 30.07 in1018.3 mb 0.00 in0.0 mm 0.00 in0.0 mm 0.00 in0.0 mm
04:20 AM 30.4°F-0.9°C 13.6°F-10.2°C 49% 2.0 mph W3.2 kmh W 6.0 mph9.7 kmh 30.07 in1018.3 mb 0.00 in0.0 mm 0.00 in0.0 mm 0.00 in0.0 mm
04:25 AM 30.4°F-0.9°C 13.6°F-10.2°C 49% 1.0 mph W1.6 kmh W 5.0 mph8.0 kmh 30.07 in1018.3 mb 0.00 in0.0 mm 0.00 in0.0 mm 0.00 in0.0 mm
04:30 AM 30.4°F-0.9°C 13.6°F-10.2°C 49% 1.0 mph NNW1.6 kmh NNW 3.0 mph4.8 kmh 30.08 in1018.6 mb 0.00 in0.0 mm 0.00 in0.0 mm 0.00 in0.0 mm
04:35 AM 30.6°F-0.8°C 13.7°F-10.2°C 49% 2.0 mph NNW3.2 kmh NNW 5.0 mph8.0 kmh 30.08 in1018.6 mb 0.00 in0.0 mm 0.00 in0.0 mm 0.00 in0.0 mm
04:40 AM 30.6°F-0.8°C 14.2°F-9.9°C 50% 1.0 mph NNW1.6 kmh NNW 4.0 mph6.4 kmh 30.08 in1018.6 mb 0.00 in0.0 mm 0.00 in0.0 mm 0.00 in0.0 mm
04:45 AM 30.6°F-0.8°C 14.6°F-9.7°C 51% 2.0 mph NNW3.2 kmh NNW 7.0 mph11.3 kmh 30.09 in1019.0 mb 0.00 in0.0 mm 0.00 in0.0 mm 0.00 in0.0 mm
04:50 AM 30.6°F-0.8°C 15.5°F-9.2°C 53% 4.0 mph NNE6.4 kmh NNE 9.0 mph14.5 kmh 30.09 in1019.0 mb 0.00 in0.0 mm 0.00 in0.0 mm 0.00 in0.0 mm
04:55 AM 30.6°F-0.8°C 15.5°F-9.2°C 53% 5.0 mph NNW8.0 kmh NNW 8.0 mph12.9 kmh 30.09 in1019.0 mb 0.00 in0.0 mm 0.00 in0.0 mm 0.00 in0.0 mm
05:00 AM 30.4°F-0.9°C 15.3°F-9.3°C 53% 2.0 mph NNE3.2 kmh NNE 6.0 mph9.7 kmh 30.09 in1019.0 mb 0.00 in0.0 mm 0.00 in0.0 mm 0.00 in0.0 mm
05:05 AM 30.1°F-1.1°C 13.7°F-10.2°C 50% 5.0 mph NNE8.0 kmh NNE 10.0 mph16.1 kmh 30.09 in1019.0 mb 0.00 in0.0 mm 0.00 in0.0 mm 0.00 in0.0 mm
05:10 AM 30.0°F-1.1°C 13.2°F-10.4°C 49% 4.0 mph 6.4 kmh 8.0 mph12.9 kmh 30.09 in1019.0 mb 0.00 in0.0 mm 0.00 in0.0 mm 0.00 in0.0 mm
05:15 AM 29.7°F-1.3°C 12.9°F-10.6°C 49% 4.0 mph NNE6.4 kmh NNE 8.0 mph12.9 kmh 30.11 in1019.6 mb 0.00 in0.0 mm 0.00 in0.0 mm 0.00 in0.0 mm
05:20 AM 29.4°F-1.4°C 12.2°F-11.0°C 48% 4.0 mph 6.4 kmh 10.0 mph16.1 kmh 30.11 in1019.6 mb 0.00 in0.0 mm 0.00 in0.0 mm 0.00 in0.0 mm
05:25 AM 29.1°F-1.6°C 11.4°F-11.4°C 47% 6.0 mph 9.7 kmh 13.0 mph20.9 kmh 30.11 in1019.6 mb 0.00 in0.0 mm 0.00 in0.0 mm 0.00 in0.0 mm
05:30 AM 29.0°F-1.7°C 11.3°F-11.5°C 47% 5.0 mph 8.0 kmh 10.0 mph16.1 kmh 30.12 in1020.0 mb 0.00 in0.0 mm 0.00 in0.0 mm 0.00 in0.0 mm
05:35 AM 28.7°F-1.8°C 11.5°F-11.4°C 48% 4.0 mph 6.4 kmh 9.0 mph14.5 kmh 30.12 in1020.0 mb 0.00 in0.0 mm 0.00 in0.0 mm 0.00 in0.0 mm
05:40 AM 28.5°F-1.9°C 11.3°F-11.5°C 48% 3.0 mph NNE4.8 kmh NNE 7.0 mph11.3 kmh 30.12 in1020.0 mb 0.00 in0.0 mm 0.00 in0.0 mm 0.00 in0.0 mm
05:45 AM 28.4°F-2.0°C 11.2°F-11.6°C 48% 3.0 mph NNE4.8 kmh NNE 8.0 mph12.9 kmh 30.12 in1020.0 mb 0.00 in0.0 mm 0.00 in0.0 mm 0.00 in0.0 mm
05:50 AM 28.2°F-2.1°C 11.1°F-11.6°C 48% 4.0 mph NE6.4 kmh NE 7.0 mph11.3 kmh 30.12 in1020.0 mb 0.00 in0.0 mm 0.00 in0.0 mm 0.00 in0.0 mm
05:55 AM 28.1°F-2.2°C 11.0°F-11.7°C 48% 4.0 mph 6.4 kmh 7.0 mph11.3 kmh 30.12 in1020.0 mb 0.00 in0.0 mm 0.00 in0.0 mm 0.00 in0.0 mm
06:00 AM 27.9°F-2.3°C 10.8°F-11.8°C 48% 4.0 mph 6.4 kmh 9.0 mph14.5 kmh 30.14 in1020.7 mb 0.00 in0.0 mm 0.00 in0.0 mm 0.00 in0.0 mm
06:05 AM 27.6°F-2.4°C 10.5°F-11.9°C 48% 2.0 mph 3.2 kmh 7.0 mph11.3 kmh 30.14 in1020.7 mb 0.00 in0.0 mm 0.00 in0.0 mm 0.00 in0.0 mm
06:10 AM 27.5°F-2.5°C 10.4°F-12.0°C 48% 2.0 mph NNW3.2 kmh NNW 6.0 mph9.7 kmh 30.14 in1020.7 mb 0.00 in0.0 mm 0.00 in0.0 mm 0.00 in0.0 mm
06:15 AM 27.2°F-2.7°C 10.1°F-12.2°C 48% 3.0 mph NNW4.8 kmh NNW 8.0 mph12.9 kmh 30.14 in1020.7 mb 0.00 in0.0 mm 0.00 in0.0 mm 0.00 in0.0 mm
06:20 AM 27.0°F-2.8°C 9.0°F-12.8°C 46% 4.0 mph 6.4 kmh 9.0 mph14.5 kmh 30.14 in1020.7 mb 0.00 in0.0 mm 0.00 in0.0 mm 0.00 in0.0 mm
06:25 AM 26.7°F-2.9°C 8.7°F-12.9°C 46% 4.0 mph 6.4 kmh 6.0 mph9.7 kmh 30.14 in1020.7 mb 0.00 in0.0 mm 0.00 in0.0 mm 0.00 in0.0 mm
06:30 AM 26.6°F-3.0°C 8.6°F-13.0°C 46% 3.0 mph 4.8 kmh 5.0 mph8.0 kmh 30.16 in1021.3 mb 0.00 in0.0 mm 0.00 in0.0 mm 0.00 in0.0 mm
06:35 AM 26.3°F-3.2°C 7.4°F-13.7°C 44% 5.0 mph 8.0 kmh 11.0 mph17.7 kmh 30.16 in1021.3 mb 0.00 in0.0 mm 0.00 in0.0 mm 0.00 in0.0 mm
06:40 AM 26.1°F-3.3°C 5.7°F-14.6°C 41% 6.0 mph 9.7 kmh 14.0 mph22.5 kmh 30.16 in1021.3 mb 0.00 in0.0 mm 0.00 in0.0 mm 0.00 in0.0 mm
06:45 AM 25.8°F-3.4°C 4.8°F-15.1°C 40% 6.0 mph 9.7 kmh 13.0 mph20.9 kmh 30.17 in1021.7 mb 0.00 in0.0 mm 0.00 in0.0 mm 0.00 in0.0 mm
06:50 AM 25.7°F-3.5°C 4.8°F-15.1°C 40% 4.0 mph 6.4 kmh 8.0 mph12.9 kmh 30.17 in1021.7 mb 0.00 in0.0 mm 0.00 in0.0 mm 0.00 in0.0 mm
06:55 AM 25.6°F-3.6°C 4.7°F-15.2°C 40% 4.0 mph NNW6.4 kmh NNW 8.0 mph12.9 kmh 30.17 in1021.7 mb 0.00 in0.0 mm 0.00 in0.0 mm 0.00 in0.0 mm
07:00 AM 25.4°F-3.7°C 4.5°F-15.3°C 40% 5.0 mph 8.0 kmh 10.0 mph16.1 kmh 30.17 in1021.7 mb 0.00 in0.0 mm 0.00 in0.0 mm 0.00 in0.0 mm
07:05 AM 25.3°F-3.7°C 4.9°F-15.1°C 41% 4.0 mph 6.4 kmh 9.0 mph14.5 kmh 30.17 in1021.7 mb 0.00 in0.0 mm 0.00 in0.0 mm 0.00 in0.0 mm
07:10 AM 25.0°F-3.9°C 4.1°F-15.5°C 40% 5.0 mph 8.0 kmh 11.0 mph17.7 kmh 30.17 in1021.7 mb 0.00 in0.0 mm 0.00 in0.0 mm 0.00 in0.0 mm
07:15 AM 24.8°F-4.0°C 3.9°F-15.6°C 40% 4.0 mph 6.4 kmh 9.0 mph14.5 kmh 30.18 in1022.0 mb 0.00 in0.0 mm 0.00 in0.0 mm 0.00 in0.0 mm
07:20 AM 24.7°F-4.1°C 3.9°F-15.6°C 40% 5.0 mph 8.0 kmh 10.0 mph16.1 kmh 30.18 in1022.0 mb 0.00 in0.0 mm 0.00 in0.0 mm 0.00 in0.0 mm
07:25 AM 24.5°F-4.2°C 2.6°F-16.3°C 38% 6.0 mph 9.7 kmh 12.0 mph19.3 kmh 30.18 in1022.0 mb 0.00 in0.0 mm 0.00 in0.0 mm 0.00 in0.0 mm
07:30 AM 24.4°F-4.2°C 2.5°F-16.4°C 38% 3.0 mph 4.8 kmh 7.0 mph11.3 kmh 30.20 in1022.7 mb 0.00 in0.0 mm 0.00 in0.0 mm 0.00 in0.0 mm
07:35 AM 24.2°F-4.3°C 2.9°F-16.2°C 39% 2.0 mph 3.2 kmh 4.0 mph6.4 kmh 30.20 in1022.7 mb 0.00 in0.0 mm 0.00 in0.0 mm 0.00 in0.0 mm
07:40 AM 23.9°F-4.5°C 4.7°F-15.2°C 43% 4.0 mph 6.4 kmh 8.0 mph12.9 kmh 30.20 in1022.7 mb 0.00 in0.0 mm 0.00 in0.0 mm 0.00 in0.0 mm
07:45 AM 23.6°F-4.7°C 5.9°F-14.5°C 46% 3.0 mph NNE4.8 kmh NNE 7.0 mph11.3 kmh 30.21 in1023.0 mb 0.00 in0.0 mm 0.00 in0.0 mm 0.00 in0.0 mm
07:50 AM 23.2°F-4.9°C 5.5°F-14.7°C 46% 3.0 mph NE4.8 kmh NE 9.0 mph14.5 kmh 30.21 in1023.0 mb 0.00 in0.0 mm 0.00 in0.0 mm 0.00 in0.0 mm
07:55 AM 22.9°F-5.1°C 5.7°F-14.6°C 47% 2.0 mph 3.2 kmh 5.0 mph8.0 kmh 30.21 in1023.0 mb 0.00 in0.0 mm 0.00 in0.0 mm 0.00 in0.0 mm
08:00 AM 22.5°F-5.3°C 5.8°F-14.6°C 48% 2.0 mph 3.2 kmh 5.0 mph8.0 kmh 30.21 in1023.0 mb 0.00 in0.0 mm 0.00 in0.0 mm 0.00 in0.0 mm
08:05 AM 22.4°F-5.3°C 5.7°F-14.6°C 48% 3.0 mph 4.8 kmh 8.0 mph12.9 kmh 30.21 in1023.0 mb 0.00 in0.0 mm 0.00 in0.0 mm 0.00 in0.0 mm
08:10 AM 22.1°F-5.5°C 5.4°F-14.8°C 48% 4.0 mph 6.4 kmh 13.0 mph20.9 kmh 30.21 in1023.0 mb 0.00 in0.0 mm 0.00 in0.0 mm 0.00 in0.0 mm
08:15 AM 21.9°F-5.6°C 5.3°F-14.8°C 48% 3.0 mph 4.8 kmh 7.0 mph11.3 kmh 30.22 in1023.4 mb 0.00 in0.0 mm 0.00 in0.0 mm 0.00 in0.0 mm
08:20 AM 21.8°F-5.7°C 5.2°F-14.9°C 48% 4.0 mph NNE6.4 kmh NNE 7.0 mph11.3 kmh 30.22 in1023.4 mb 0.00 in0.0 mm 0.00 in0.0 mm 0.00 in0.0 mm
08:25 AM 21.6°F-5.8°C 5.0°F-15.0°C 48% 3.0 mph 4.8 kmh 6.0 mph9.7 kmh 30.22 in1023.4 mb 0.00 in0.0 mm 0.00 in0.0 mm 0.00 in0.0 mm
08:30 AM 21.4°F-5.9°C 5.2°F-14.9°C 49% 3.0 mph 4.8 kmh 9.0 mph14.5 kmh 30.23 in1023.7 mb 0.00 in0.0 mm 0.00 in0.0 mm 0.00 in0.0 mm
08:35 AM 21.3°F-5.9°C 4.7°F-15.2°C 48% 2.0 mph 3.2 kmh 4.0 mph6.4 kmh 30.23 in1023.7 mb 0.00 in0.0 mm 0.00 in0.0 mm 0.00 in0.0 mm
08:40 AM 21.0°F-6.1°C 4.9°F-15.1°C 49% 2.0 mph 3.2 kmh 3.0 mph4.8 kmh 30.23 in1023.7 mb 0.00 in0.0 mm 0.00 in0.0 mm 0.00 in0.0 mm
08:45 AM 20.8°F-6.2°C 4.2°F-15.4°C 48% 2.0 mph 3.2 kmh 5.0 mph8.0 kmh 30.23 in1023.7 mb 0.00 in0.0 mm 0.00 in0.0 mm 0.00 in0.0 mm
08:50 AM 20.5°F-6.4°C 4.0°F-15.6°C 48% 3.0 mph 4.8 kmh 6.0 mph9.7 kmh 30.23 in1023.7 mb 0.00 in0.0 mm 0.00 in0.0 mm 0.00 in0.0 mm
08:55 AM 20.2°F-6.6°C 3.7°F-15.7°C 48% 2.0 mph 3.2 kmh 4.0 mph6.4 kmh 30.23 in1023.7 mb 0.00 in0.0 mm 0.00 in0.0 mm 0.00 in0.0 mm
09:00 AM 19.9°F-6.7°C 3.0°F-16.1°C 47% 3.0 mph 4.8 kmh 6.0 mph9.7 kmh 30.25 in1024.4 mb 0.00 in0.0 mm 0.00 in0.0 mm 0.00 in0.0 mm
09:05 AM 19.7°F-6.8°C 3.2°F-16.0°C 48% 2.0 mph 3.2 kmh 5.0 mph8.0 kmh 30.25 in1024.4 mb 0.00 in0.0 mm 0.00 in0.0 mm 0.00 in0.0 mm
09:10 AM 19.4°F-7.0°C 2.9°F-16.2°C 48% 3.0 mph 4.8 kmh 8.0 mph12.9 kmh 30.25 in1024.4 mb 0.00 in0.0 mm 0.00 in0.0 mm 0.00 in0.0 mm
09:15 AM 19.1°F-7.2°C 2.7°F-16.3°C 48% 4.0 mph 6.4 kmh 6.0 mph9.7 kmh 30.25 in1024.4 mb 0.00 in0.0 mm 0.00 in0.0 mm 0.00 in0.0 mm
09:20 AM 18.9°F-7.3°C 2.5°F-16.4°C 48% 2.0 mph 3.2 kmh 5.0 mph8.0 kmh 30.25 in1024.4 mb 0.00 in0.0 mm 0.00 in0.0 mm 0.00 in0.0 mm
09:25 AM 18.8°F-7.3°C 2.4°F-16.4°C 48% 3.0 mph NNE4.8 kmh NNE 7.0 mph11.3 kmh 30.25 in1024.4 mb 0.00 in0.0 mm 0.00 in0.0 mm 0.00 in0.0 mm
09:30 AM 18.4°F-7.6°C 2.0°F-16.7°C 48% 4.0 mph 6.4 kmh 11.0 mph17.7 kmh 30.26 in1024.7 mb 0.00 in0.0 mm 0.00 in0.0 mm 0.00 in0.0 mm
09:35 AM 18.3°F-7.6°C 1.9°F-16.7°C 48% 3.0 mph NNE4.8 kmh NNE 6.0 mph9.7 kmh 30.26 in1024.7 mb 0.00 in0.0 mm 0.00 in0.0 mm 0.00 in0.0 mm
09:40 AM 18.1°F-7.7°C 1.8°F-16.8°C 48% 4.0 mph 6.4 kmh 8.0 mph12.9 kmh 30.26 in1024.7 mb 0.00 in0.0 mm 0.00 in0.0 mm 0.00 in0.0 mm
09:45 AM 18.0°F-7.8°C 1.2°F-17.1°C 47% 5.0 mph 8.0 kmh 11.0 mph17.7 kmh 30.26 in1024.7 mb 0.00 in0.0 mm 0.00 in0.0 mm 0.00 in0.0 mm
09:50 AM 17.8°F-7.9°C 1.0°F-17.2°C 47% 4.0 mph NNE6.4 kmh NNE 9.0 mph14.5 kmh 30.26 in1024.7 mb 0.00 in0.0 mm 0.00 in0.0 mm 0.00 in0.0 mm
09:55 AM 17.7°F-7.9°C 1.4°F-17.0°C 48% 3.0 mph NNE4.8 kmh NNE 5.0 mph8.0 kmh 30.26 in1024.7 mb 0.00 in0.0 mm 0.00 in0.0 mm 0.00 in0.0 mm
10:00 AM 17.5°F-8.1°C 1.2°F-17.1°C 48% 2.0 mph 3.2 kmh 5.0 mph8.0 kmh 30.27 in1025.1 mb 0.00 in0.0 mm 0.00 in0.0 mm 0.00 in0.0 mm
10:05 AM 17.3°F-8.2°C 1.0°F-17.2°C 48% 4.0 mph 6.4 kmh 7.0 mph11.3 kmh 30.27 in1025.1 mb 0.00 in0.0 mm 0.00 in0.0 mm 0.00 in0.0 mm
10:10 AM 17.2°F-8.2°C 0.9°F-17.3°C 48% 4.0 mph 6.4 kmh 7.0 mph11.3 kmh 30.27 in1025.1 mb 0.00 in0.0 mm 0.00 in0.0 mm 0.00 in0.0 mm
10:15 AM 17.2°F-8.2°C 1.4°F-17.0°C 49% 4.0 mph 6.4 kmh 8.0 mph12.9 kmh 30.27 in1025.1 mb 0.00 in0.0 mm 0.00 in0.0 mm 0.00 in0.0 mm
10:20 AM 17.0°F-8.3°C 1.2°F-17.1°C 49% 3.0 mph 4.8 kmh 7.0 mph11.3 kmh 30.27 in1025.1 mb 0.00 in0.0 mm 0.00 in0.0 mm 0.00 in0.0 mm
10:25 AM 16.9°F-8.4°C 1.1°F-17.2°C 49% 3.0 mph 4.8 kmh 7.0 mph11.3 kmh 30.27 in1025.1 mb 0.00 in0.0 mm 0.00 in0.0 mm 0.00 in0.0 mm
10:30 AM 16.7°F-8.5°C 0.9°F-17.3°C 49% 4.0 mph 6.4 kmh 8.0 mph12.9 kmh 30.28 in1025.4 mb 0.00 in0.0 mm 0.00 in0.0 mm 0.00 in0.0 mm
10:35 AM 16.7°F-8.5°C 0.9°F-17.3°C 49% 4.0 mph 6.4 kmh 8.0 mph12.9 kmh 30.28 in1025.4 mb 0.00 in0.0 mm 0.00 in0.0 mm 0.00 in0.0 mm
10:40 AM 16.7°F-8.5°C 1.3°F-17.1°C 50% 4.0 mph NNE6.4 kmh NNE 8.0 mph12.9 kmh 30.28 in1025.4 mb 0.00 in0.0 mm 0.00 in0.0 mm 0.00 in0.0 mm
10:45 AM 16.5°F-8.6°C 1.1°F-17.2°C 50% 5.0 mph 8.0 kmh 9.0 mph14.5 kmh 30.28 in1025.4 mb 0.00 in0.0 mm 0.00 in0.0 mm 0.00 in0.0 mm
10:50 AM 16.5°F-8.6°C 1.6°F-16.9°C 51% 4.0 mph 6.4 kmh 7.0 mph11.3 kmh 30.28 in1025.4 mb 0.00 in0.0 mm 0.00 in0.0 mm 0.00 in0.0 mm
10:55 AM 16.4°F-8.7°C 1.5°F-16.9°C 51% 3.0 mph 4.8 kmh 5.0 mph8.0 kmh 30.28 in1025.4 mb 0.00 in0.0 mm 0.00 in0.0 mm 0.00 in0.0 mm
11:00 AM 16.2°F-8.8°C 1.3°F-17.1°C 51% 4.0 mph NNE6.4 kmh NNE 8.0 mph12.9 kmh 30.28 in1025.4 mb 0.00 in0.0 mm 0.00 in0.0 mm 0.00 in0.0 mm
11:05 AM 16.1°F-8.8°C 1.2°F-17.1°C 51% 4.0 mph 6.4 kmh 10.0 mph16.1 kmh 30.28 in1025.4 mb 0.00 in0.0 mm 0.00 in0.0 mm 0.00 in0.0 mm
11:10 AM 16.1°F-8.8°C 1.2°F-17.1°C 51% 4.0 mph NNE6.4 kmh NNE 9.0 mph14.5 kmh 30.28 in1025.4 mb 0.00 in0.0 mm 0.00 in0.0 mm 0.00 in0.0 mm
11:15 AM 15.9°F-8.9°C 1.0°F-17.2°C 51% 4.0 mph NNE6.4 kmh NNE 11.0 mph17.7 kmh 30.28 in1025.4 mb 0.00 in0.0 mm 0.00 in0.0 mm 0.00 in0.0 mm
11:20 AM 15.7°F-9.1°C 0.8°F-17.3°C 51% 4.0 mph NNW6.4 kmh NNW 7.0 mph11.3 kmh 30.28 in1025.4 mb 0.00 in0.0 mm 0.00 in0.0 mm 0.00 in0.0 mm
11:25 AM 15.7°F-9.1°C 0.4°F-17.6°C 50% 5.0 mph 8.0 kmh 8.0 mph12.9 kmh 30.28 in1025.4 mb 0.00 in0.0 mm 0.00 in0.0 mm 0.00 in0.0 mm
11:30 AM 15.6°F-9.1°C 0.3°F-17.6°C 50% 4.0 mph NNW6.4 kmh NNW 9.0 mph14.5 kmh 30.29 in1025.7 mb 0.00 in0.0 mm 0.00 in0.0 mm 0.00 in0.0 mm
11:35 AM 15.4°F-9.2°C 0.1°F-17.7°C 50% 4.0 mph NNE6.4 kmh NNE 11.0 mph17.7 kmh 30.29 in1025.7 mb 0.00 in0.0 mm 0.00 in0.0 mm 0.00 in0.0 mm
11:40 AM 15.4°F-9.2°C -0.3°F-17.9°C 49% 5.0 mph 8.0 kmh 10.0 mph16.1 kmh 30.29 in1025.7 mb 0.00 in0.0 mm 0.00 in0.0 mm 0.00 in0.0 mm
11:45 AM 15.2°F-9.3°C -0.5°F-18.1°C 49% 4.0 mph 6.4 kmh 10.0 mph16.1 kmh 30.30 in1026.1 mb 0.00 in0.0 mm 0.00 in0.0 mm 0.00 in0.0 mm
11:50 AM 15.1°F-9.4°C -1.0°F-18.3°C 48% 4.0 mph 6.4 kmh 11.0 mph17.7 kmh 30.30 in1026.1 mb 0.00 in0.0 mm 0.00 in0.0 mm 0.00 in0.0 mm
11:55 AM 14.9°F-9.5°C -1.2°F-18.4°C 48% 4.0 mph 6.4 kmh 8.0 mph12.9 kmh 30.30 in1026.1 mb 0.00 in0.0 mm 0.00 in0.0 mm 0.00 in0.0 mm
12:00 PM 14.9°F-9.5°C -0.8°F-18.2°C 49% 2.0 mph 3.2 kmh 4.0 mph6.4 kmh 30.30 in1026.1 mb 0.00 in0.0 mm 0.00 in0.0 mm 0.00 in0.0 mm
12:05 PM 14.8°F-9.6°C -1.3°F-18.5°C 48% 4.0 mph 6.4 kmh 9.0 mph14.5 kmh 30.30 in1026.1 mb 0.00 in0.0 mm 0.00 in0.0 mm 0.00 in0.0 mm
12:10 PM 14.8°F-9.6°C -1.3°F-18.5°C 48% 4.0 mph 6.4 kmh 8.0 mph12.9 kmh 30.30 in1026.1 mb 0.00 in0.0 mm 0.00 in0.0 mm 0.00 in0.0 mm
12:15 PM 14.6°F-9.7°C -1.5°F-18.6°C 48% 3.0 mph 4.8 kmh 8.0 mph12.9 kmh 30.31 in1026.4 mb 0.00 in0.0 mm 0.00 in0.0 mm 0.00 in0.0 mm
12:20 PM 14.6°F-9.7°C -1.5°F-18.6°C 48% 2.0 mph NW3.2 kmh NW 4.0 mph6.4 kmh 30.31 in1026.4 mb 0.00 in0.0 mm 0.00 in0.0 mm 0.00 in0.0 mm
12:25 PM 14.4°F-9.8°C -2.1°F-18.9°C 47% 3.0 mph NW4.8 kmh NW 8.0 mph12.9 kmh 30.31 in1026.4 mb 0.00 in0.0 mm 0.00 in0.0 mm 0.00 in0.0 mm
12:30 PM 14.3°F-9.8°C -2.6°F-19.2°C 46% 3.0 mph NNW4.8 kmh NNW 6.0 mph9.7 kmh 30.31 in1026.4 mb 0.00 in0.0 mm 0.00 in0.0 mm 0.00 in0.0 mm
12:35 PM 14.3°F-9.8°C -2.6°F-19.2°C 46% 3.0 mph 4.8 kmh 9.0 mph14.5 kmh 30.31 in1026.4 mb 0.00 in0.0 mm 0.00 in0.0 mm 0.00 in0.0 mm
12:40 PM 14.3°F-9.8°C -2.6°F-19.2°C 46% 3.0 mph NNW4.8 kmh NNW 7.0 mph11.3 kmh 30.31 in1026.4 mb 0.00 in0.0 mm 0.00 in0.0 mm 0.00 in0.0 mm
12:45 PM 14.4°F-9.8°C -3.0°F-19.4°C 45% 4.0 mph 6.4 kmh 8.0 mph12.9 kmh 30.31 in1026.4 mb 0.00 in0.0 mm 0.00 in0.0 mm 0.00 in0.0 mm
12:50 PM 14.4°F-9.8°C -3.0°F-19.4°C 45% 4.0 mph 6.4 kmh 8.0 mph12.9 kmh 30.31 in1026.4 mb 0.00 in0.0 mm 0.00 in0.0 mm 0.00 in0.0 mm
12:55 PM 14.6°F-9.7°C -2.4°F-19.1°C 46% 3.0 mph 4.8 kmh 8.0 mph12.9 kmh 30.31 in1026.4 mb 0.00 in0.0 mm 0.00 in0.0 mm 0.00 in0.0 mm
01:00 PM 14.8°F-9.6°C -2.6°F-19.2°C 45% 5.0 mph 8.0 kmh 11.0 mph17.7 kmh 30.32 in1026.8 mb 0.00 in0.0 mm 0.00 in0.0 mm 0.00 in0.0 mm
01:05 PM 14.8°F-9.6°C -2.6°F-19.2°C 45% 2.0 mph 3.2 kmh 4.0 mph6.4 kmh 30.32 in1026.8 mb 0.00 in0.0 mm 0.00 in0.0 mm 0.00 in0.0 mm
01:10 PM 14.9°F-9.5°C -2.6°F-19.2°C 45% 2.0 mph NNW3.2 kmh NNW 6.0 mph9.7 kmh 30.32 in1026.8 mb 0.00 in0.0 mm 0.00 in0.0 mm 0.00 in0.0 mm
01:15 PM 15.1°F-9.4°C -2.8°F-19.3°C 44% 4.0 mph 6.4 kmh 7.0 mph11.3 kmh 30.34 in1027.4 mb 0.00 in0.0 mm 0.00 in0.0 mm 0.00 in0.0 mm
01:20 PM 15.1°F-9.4°C -2.4°F-19.1°C 45% 4.0 mph NNW6.4 kmh NNW 10.0 mph16.1 kmh 30.34 in1027.4 mb 0.00 in0.0 mm 0.00 in0.0 mm 0.00 in0.0 mm
01:25 PM 15.1°F-9.4°C -3.3°F-19.6°C 43% 5.0 mph 8.0 kmh 12.0 mph19.3 kmh 30.34 in1027.4 mb 0.00 in0.0 mm 0.00 in0.0 mm 0.00 in0.0 mm
01:30 PM 15.2°F-9.3°C -2.8°F-19.3°C 44% 4.0 mph NNW6.4 kmh NNW 9.0 mph14.5 kmh 30.34 in1027.4 mb 0.00 in0.0 mm 0.00 in0.0 mm 0.00 in0.0 mm
01:35 PM 15.2°F-9.3°C -2.8°F-19.3°C 44% 4.0 mph 6.4 kmh 8.0 mph12.9 kmh 30.34 in1027.4 mb 0.00 in0.0 mm 0.00 in0.0 mm 0.00 in0.0 mm
01:40 PM 15.4°F-9.2°C -2.6°F-19.2°C 44% 4.0 mph NNE6.4 kmh NNE 8.0 mph12.9 kmh 30.34 in1027.4 mb 0.00 in0.0 mm 0.00 in0.0 mm 0.00 in0.0 mm
01:45 PM 15.4°F-9.2°C -2.1°F-18.9°C 45% 3.0 mph 4.8 kmh 6.0 mph9.7 kmh 30.35 in1027.8 mb 0.00 in0.0 mm 0.00 in0.0 mm 0.00 in0.0 mm
01:50 PM 15.7°F-9.1°C -1.8°F-18.8°C 45% 3.0 mph 4.8 kmh 7.0 mph11.3 kmh 30.35 in1027.8 mb 0.00 in0.0 mm 0.00 in0.0 mm 0.00 in0.0 mm
01:55 PM 15.9°F-8.9°C -2.1°F-18.9°C 44% 3.0 mph NNW4.8 kmh NNW 7.0 mph11.3 kmh 30.35 in1027.8 mb 0.00 in0.0 mm 0.00 in0.0 mm 0.00 in0.0 mm
02:00 PM 16.1°F-8.8°C -1.9°F-18.8°C 44% 3.0 mph NNW4.8 kmh NNW 5.0 mph8.0 kmh 30.36 in1028.1 mb 0.00 in0.0 mm 0.00 in0.0 mm 0.00 in0.0 mm
02:05 PM 16.4°F-8.7°C -1.7°F-18.7°C 44% 3.0 mph 4.8 kmh 5.0 mph8.0 kmh 30.36 in1028.1 mb 0.00 in0.0 mm 0.00 in0.0 mm 0.00 in0.0 mm
02:10 PM 16.7°F-8.5°C -1.4°F-18.6°C 44% 1.0 mph NNW1.6 kmh NNW 4.0 mph6.4 kmh 30.36 in1028.1 mb 0.00 in0.0 mm 0.00 in0.0 mm 0.00 in0.0 mm
02:15 PM 16.9°F-8.4°C -1.7°F-18.7°C 43% 2.0 mph NNW3.2 kmh NNW 6.0 mph9.7 kmh 30.36 in1028.1 mb 0.00 in0.0 mm 0.00 in0.0 mm 0.00 in0.0 mm
02:20 PM 17.0°F-8.3°C -2.6°F-19.2°C 41% 4.0 mph 6.4 kmh 8.0 mph12.9 kmh 30.36 in1028.1 mb 0.00 in0.0 mm 0.00 in0.0 mm 0.00 in0.0 mm
02:25 PM 17.2°F-8.2°C -2.9°F-19.4°C 40% 3.0 mph 4.8 kmh 8.0 mph12.9 kmh 30.36 in1028.1 mb 0.00 in0.0 mm 0.00 in0.0 mm 0.00 in0.0 mm
02:30 PM 17.2°F-8.2°C -2.9°F-19.4°C 40% 4.0 mph 6.4 kmh 9.0 mph14.5 kmh 30.37 in1028.4 mb 0.00 in0.0 mm 0.00 in0.0 mm 0.00 in0.0 mm
02:35 PM 17.3°F-8.2°C -2.3°F-19.1°C 41% 1.0 mph 1.6 kmh 3.0 mph4.8 kmh 30.37 in1028.4 mb 0.00 in0.0 mm 0.00 in0.0 mm 0.00 in0.0 mm
02:40 PM 17.7°F-7.9°C -2.5°F-19.2°C 40% 3.0 mph 4.8 kmh 6.0 mph9.7 kmh 30.37 in1028.4 mb 0.00 in0.0 mm 0.00 in0.0 mm 0.00 in0.0 mm
02:45 PM 17.8°F-7.9°C -2.9°F-19.4°C 39% 3.0 mph NNW4.8 kmh NNW 8.0 mph12.9 kmh 30.37 in1028.4 mb 0.00 in0.0 mm 0.00 in0.0 mm 0.00 in0.0 mm
02:50 PM 18.0°F-7.8°C -2.7°F-19.3°C 39% 4.0 mph NNE6.4 kmh NNE 7.0 mph11.3 kmh 30.37 in1028.4 mb 0.00 in0.0 mm 0.00 in0.0 mm 0.00 in0.0 mm
02:55 PM 18.3°F-7.6°C -3.6°F-19.8°C 37% 3.0 mph 4.8 kmh 7.0 mph11.3 kmh 30.37 in1028.4 mb 0.00 in0.0 mm 0.00 in0.0 mm 0.00 in0.0 mm
03:00 PM 18.9°F-7.3°C -3.0°F-19.4°C 37% 4.0 mph 6.4 kmh 7.0 mph11.3 kmh 30.37 in1028.4 mb 0.00 in0.0 mm 0.00 in0.0 mm 0.00 in0.0 mm
03:05 PM 19.4°F-7.0°C -3.7°F-19.8°C 35% 4.0 mph 6.4 kmh 11.0 mph17.7 kmh 30.37 in1028.4 mb 0.00 in0.0 mm 0.00 in0.0 mm 0.00 in0.0 mm
03:10 PM 19.4°F-7.0°C -5.0°F-20.6°C 33% 5.0 mph 8.0 kmh 9.0 mph14.5 kmh 30.37 in1028.4 mb 0.00 in0.0 mm 0.00 in0.0 mm 0.00 in0.0 mm
03:15 PM 19.7°F-6.8°C -4.7°F-20.4°C 33% 4.0 mph NNW6.4 kmh NNW 11.0 mph17.7 kmh 30.37 in1028.4 mb 0.00 in0.0 mm 0.00 in0.0 mm 0.00 in0.0 mm
03:20 PM 19.7°F-6.8°C -5.3°F-20.7°C 32% 4.0 mph NNW6.4 kmh NNW 10.0 mph16.1 kmh 30.37 in1028.4 mb 0.00 in0.0 mm 0.00 in0.0 mm 0.00 in0.0 mm
03:25 PM 20.0°F-6.7°C -5.1°F-20.6°C 32% 4.0 mph NNW6.4 kmh NNW 9.0 mph14.5 kmh 30.37 in1028.4 mb 0.00 in0.0 mm 0.00 in0.0 mm 0.00 in0.0 mm
03:30 PM 20.3°F-6.5°C -4.8°F-20.4°C 32% 3.0 mph NNW4.8 kmh NNW 6.0 mph9.7 kmh 30.37 in1028.4 mb 0.00 in0.0 mm 0.00 in0.0 mm 0.00 in0.0 mm
03:35 PM 20.8°F-6.2°C -4.4°F-20.2°C 32% 4.0 mph NNW6.4 kmh NNW 8.0 mph12.9 kmh 30.37 in1028.4 mb 0.00 in0.0 mm 0.00 in0.0 mm 0.00 in0.0 mm
03:40 PM 20.8°F-6.2°C -5.7°F-20.9°C 30% 5.0 mph 8.0 kmh 12.0 mph19.3 kmh 30.37 in1028.4 mb 0.00 in0.0 mm 0.00 in0.0 mm 0.00 in0.0 mm
03:45 PM 21.0°F-6.1°C -4.8°F-20.4°C 31% 3.0 mph NNW4.8 kmh NNW 7.0 mph11.3 kmh 30.37 in1028.4 mb 0.00 in0.0 mm 0.00 in0.0 mm 0.00 in0.0 mm
03:50 PM 21.1°F-6.1°C -5.4°F-20.8°C 30% 2.0 mph NNW3.2 kmh NNW 6.0 mph9.7 kmh 30.37 in1028.4 mb 0.00 in0.0 mm 0.00 in0.0 mm 0.00 in0.0 mm
03:55 PM 21.4°F-5.9°C -5.9°F-21.1°C 29% 4.0 mph NNE6.4 kmh NNE 11.0 mph17.7 kmh 30.37 in1028.4 mb 0.00 in0.0 mm 0.00 in0.0 mm 0.00 in0.0 mm
04:00 PM 21.6°F-5.8°C -6.4°F-21.3°C 28% 4.0 mph 6.4 kmh 7.0 mph11.3 kmh 30.36 in1028.1 mb 0.00 in0.0 mm 0.00 in0.0 mm 0.00 in0.0 mm
04:05 PM 21.6°F-5.8°C -6.4°F-21.3°C 28% 5.0 mph 8.0 kmh 8.0 mph12.9 kmh 30.36 in1028.1 mb 0.00 in0.0 mm 0.00 in0.0 mm 0.00 in0.0 mm
04:10 PM 21.9°F-5.6°C -5.4°F-20.8°C 29% 3.0 mph 4.8 kmh 8.0 mph12.9 kmh 30.36 in1028.1 mb 0.00 in0.0 mm 0.00 in0.0 mm 0.00 in0.0 mm
04:15 PM 22.1°F-5.5°C -6.0°F-21.1°C 28% 5.0 mph 8.0 kmh 9.0 mph14.5 kmh 30.35 in1027.8 mb 0.00 in0.0 mm 0.00 in0.0 mm 0.00 in0.0 mm
04:20 PM 22.2°F-5.4°C -6.6°F-21.4°C 27% 4.0 mph 6.4 kmh 9.0 mph14.5 kmh 30.35 in1027.8 mb 0.00 in0.0 mm 0.00 in0.0 mm 0.00 in0.0 mm
04:25 PM 22.4°F-5.3°C -6.5°F-21.4°C 27% 3.0 mph NW4.8 kmh NW 6.0 mph9.7 kmh 30.35 in1027.8 mb 0.00 in0.0 mm 0.00 in0.0 mm 0.00 in0.0 mm
04:30 PM 22.4°F-5.3°C -6.5°F-21.4°C 27% 3.0 mph NW4.8 kmh NW 7.0 mph11.3 kmh 30.35 in1027.8 mb 0.00 in0.0 mm 0.00 in0.0 mm 0.00 in0.0 mm
04:35 PM 22.7°F-5.2°C -5.5°F-20.8°C 28% 2.0 mph NNW3.2 kmh NNW 8.0 mph12.9 kmh 30.35 in1027.8 mb 0.00 in0.0 mm 0.00 in0.0 mm 0.00 in0.0 mm
04:40 PM 23.0°F-5.0°C -5.2°F-20.7°C 28% 1.0 mph NNW1.6 kmh NNW 5.0 mph8.0 kmh 30.35 in1027.8 mb 0.00 in0.0 mm 0.00 in0.0 mm 0.00 in0.0 mm
04:45 PM 23.6°F-4.7°C -5.4°F-20.8°C 27% 3.0 mph 4.8 kmh 8.0 mph12.9 kmh 30.34 in1027.4 mb 0.00 in0.0 mm 0.00 in0.0 mm 0.00 in0.0 mm
04:50 PM 23.8°F-4.6°C -5.2°F-20.7°C 27% 4.0 mph 6.4 kmh 8.0 mph12.9 kmh 30.34 in1027.4 mb 0.00 in0.0 mm 0.00 in0.0 mm 0.00 in0.0 mm
04:55 PM 23.9°F-4.5°C -5.9°F-21.1°C 26% 4.0 mph 6.4 kmh 7.0 mph11.3 kmh 30.34 in1027.4 mb 0.00 in0.0 mm 0.00 in0.0 mm 0.00 in0.0 mm
05:00 PM 24.1°F-4.4°C -6.6°F-21.4°C 25% 5.0 mph 8.0 kmh 8.0 mph12.9 kmh 30.33 in1027.1 mb 0.00 in0.0 mm 0.00 in0.0 mm 0.00 in0.0 mm
05:05 PM 24.1°F-4.4°C -6.6°F-21.4°C 25% 4.0 mph 6.4 kmh 11.0 mph17.7 kmh 30.33 in1027.1 mb 0.00 in0.0 mm 0.00 in0.0 mm 0.00 in0.0 mm
05:10 PM 24.1°F-4.4°C -6.6°F-21.4°C 25% 3.0 mph 4.8 kmh 6.0 mph9.7 kmh 30.33 in1027.1 mb 0.00 in0.0 mm 0.00 in0.0 mm 0.00 in0.0 mm
05:15 PM 24.2°F-4.3°C -6.5°F-21.4°C 25% 2.0 mph NNW3.2 kmh NNW 7.0 mph11.3 kmh 30.32 in1026.8 mb 0.00 in0.0 mm 0.00 in0.0 mm 0.00 in0.0 mm
05:20 PM 24.7°F-4.1°C -5.2°F-20.7°C 26% 2.0 mph NNW3.2 kmh NNW 9.0 mph14.5 kmh 30.32 in1026.8 mb 0.00 in0.0 mm 0.00 in0.0 mm 0.00 in0.0 mm
05:25 PM 24.7°F-4.1°C -6.9°F-21.6°C 24% 4.0 mph NNE6.4 kmh NNE 7.0 mph11.3 kmh 30.32 in1026.8 mb 0.00 in0.0 mm 0.00 in0.0 mm 0.00 in0.0 mm
05:30 PM 24.8°F-4.0°C -5.2°F-20.7°C 26% 3.0 mph NNE4.8 kmh NNE 5.0 mph8.0 kmh 30.32 in1026.8 mb 0.00 in0.0 mm 0.00 in0.0 mm 0.00 in0.0 mm
05:35 PM 25.1°F-3.8°C -5.7°F-20.9°C 25% 1.0 mph NNE1.6 kmh NNE 5.0 mph8.0 kmh 30.32 in1026.8 mb 0.00 in0.0 mm 0.00 in0.0 mm 0.00 in0.0 mm
05:40 PM 25.3°F-3.7°C -5.5°F-20.8°C 25% 3.0 mph NNE4.8 kmh NNE 7.0 mph11.3 kmh 30.32 in1026.8 mb 0.00 in0.0 mm 0.00 in0.0 mm 0.00 in0.0 mm
05:45 PM 25.4°F-3.7°C -5.5°F-20.8°C 25% 2.0 mph 3.2 kmh 7.0 mph11.3 kmh 30.32 in1026.8 mb 0.00 in0.0 mm 0.00 in0.0 mm 0.00 in0.0 mm
05:50 PM 25.4°F-3.7°C -6.3°F-21.3°C 24% 2.0 mph NNE3.2 kmh NNE 5.0 mph8.0 kmh 30.32 in1026.8 mb 0.00 in0.0 mm 0.00 in0.0 mm 0.00 in0.0 mm
05:55 PM 25.4°F-3.7°C -6.3°F-21.3°C 24% 1.0 mph NNE1.6 kmh NNE 5.0 mph8.0 kmh 30.32 in1026.8 mb 0.00 in0.0 mm 0.00 in0.0 mm 0.00 in0.0 mm
06:00 PM 25.7°F-3.5°C -6.0°F-21.1°C 24% Calm Calm 3.0 mph4.8 kmh 30.31 in1026.4 mb 0.00 in0.0 mm 0.00 in0.0 mm 0.00 in0.0 mm
06:05 PM 25.8°F-3.4°C -6.8°F-21.6°C 23% 3.0 mph 4.8 kmh 6.0 mph9.7 kmh 30.31 in1026.4 mb 0.00 in0.0 mm 0.00 in0.0 mm 0.00 in0.0 mm
06:10 PM 26.0°F-3.3°C -5.8°F-21.0°C 24% 1.0 mph 1.6 kmh 3.0 mph4.8 kmh 30.31 in1026.4 mb 0.00 in0.0 mm 0.00 in0.0 mm 0.00 in0.0 mm
06:15 PM 26.1°F-3.3°C -6.6°F-21.4°C 23% 2.0 mph 3.2 kmh 6.0 mph9.7 kmh 30.31 in1026.4 mb 0.00 in0.0 mm 0.00 in0.0 mm 0.00 in0.0 mm
06:20 PM 26.0°F-3.3°C -6.7°F-21.5°C 23% 2.0 mph 3.2 kmh 4.0 mph6.4 kmh 30.31 in1026.4 mb 0.00 in0.0 mm 0.00 in0.0 mm 0.00 in0.0 mm
06:25 PM 25.8°F-3.4°C -6.8°F-21.6°C 23% 2.0 mph 3.2 kmh 4.0 mph6.4 kmh 30.31 in1026.4 mb 0.00 in0.0 mm 0.00 in0.0 mm 0.00 in0.0 mm
06:30 PM 25.8°F-3.4°C -6.8°F-21.6°C 23% 1.0 mph 1.6 kmh 3.0 mph4.8 kmh 30.31 in1026.4 mb 0.00 in0.0 mm 0.00 in0.0 mm 0.00 in0.0 mm
06:35 PM 26.0°F-3.3°C -6.7°F-21.5°C 23% Calm Calm 4.0 mph6.4 kmh 30.31 in1026.4 mb 0.00 in0.0 mm 0.00 in0.0 mm 0.00 in0.0 mm
06:40 PM 26.0°F-3.3°C -6.7°F-21.5°C 23% Calm Calm 2.0 mph3.2 kmh 30.31 in1026.4 mb 0.00 in0.0 mm 0.00 in0.0 mm 0.00 in0.0 mm
06:45 PM 26.0°F-3.3°C -6.7°F-21.5°C 23% Calm Calm 1.0 mph1.6 kmh 30.31 in1026.4 mb 0.00 in0.0 mm 0.00 in0.0 mm 0.00 in0.0 mm
06:50 PM 26.1°F-3.3°C -6.6°F-21.4°C 23% 2.0 mph 3.2 kmh 4.0 mph6.4 kmh 30.31 in1026.4 mb 0.00 in0.0 mm 0.00 in0.0 mm 0.00 in0.0 mm
06:55 PM 26.3°F-3.2°C -6.4°F-21.3°C 23% 1.0 mph 1.6 kmh 4.0 mph6.4 kmh 30.31 in1026.4 mb 0.00 in0.0 mm 0.00 in0.0 mm 0.00 in0.0 mm
07:00 PM 26.3°F-3.2°C -6.4°F-21.3°C 23% 1.0 mph 1.6 kmh 4.0 mph6.4 kmh 30.30 in1026.1 mb 0.00 in0.0 mm 0.00 in0.0 mm 0.00 in0.0 mm
07:05 PM 26.4°F-3.1°C -6.3°F-21.3°C 23% 1.0 mph NNE1.6 kmh NNE 3.0 mph4.8 kmh 30.30 in1026.1 mb 0.00 in0.0 mm 0.00 in0.0 mm 0.00 in0.0 mm
07:10 PM 26.4°F-3.1°C -6.3°F-21.3°C 23% Calm Calm 2.0 mph3.2 kmh 30.30 in1026.1 mb 0.00 in0.0 mm 0.00 in0.0 mm 0.00 in0.0 mm
07:15 PM 26.4°F-3.1°C -7.2°F-21.8°C 22% Calm Calm 1.0 mph1.6 kmh 30.30 in1026.1 mb 0.00 in0.0 mm 0.00 in0.0 mm 0.00 in0.0 mm
07:20 PM 26.6°F-3.0°C -6.1°F-21.2°C 23% Calm Calm 3.0 mph4.8 kmh 30.30 in1026.1 mb 0.00 in0.0 mm 0.00 in0.0 mm 0.00 in0.0 mm
07:25 PM 26.7°F-2.9°C -6.1°F-21.2°C 23% 1.0 mph WSW1.6 kmh WSW 5.0 mph8.0 kmh 30.30 in1026.1 mb 0.00 in0.0 mm 0.00 in0.0 mm 0.00 in0.0 mm
07:30 PM 26.9°F-2.8°C -6.8°F-21.6°C 22% 1.0 mph WSW1.6 kmh WSW 3.0 mph4.8 kmh 30.30 in1026.1 mb 0.00 in0.0 mm 0.00 in0.0 mm 0.00 in0.0 mm
07:35 PM 27.2°F-2.7°C -5.6°F-20.9°C 23% Calm Calm 1.0 mph1.6 kmh 30.30 in1026.1 mb 0.00 in0.0 mm 0.00 in0.0 mm 0.00 in0.0 mm
07:40 PM 27.3°F-2.6°C -6.5°F-21.4°C 22% 2.0 mph WSW3.2 kmh WSW 4.0 mph6.4 kmh 30.30 in1026.1 mb 0.00 in0.0 mm 0.00 in0.0 mm 0.00 in0.0 mm
07:45 PM 27.3°F-2.6°C -6.5°F-21.4°C 22% Calm Calm 1.0 mph1.6 kmh 30.29 in1025.7 mb 0.00 in0.0 mm 0.00 in0.0 mm 0.00 in0.0 mm
07:50 PM 27.2°F-2.7°C -6.5°F-21.4°C 22% Calm Calm 2.0 mph3.2 kmh 30.29 in1025.7 mb 0.00 in0.0 mm 0.00 in0.0 mm 0.00 in0.0 mm
07:55 PM 27.0°F-2.8°C -5.8°F-21.0°C 23% Calm Calm 3.0 mph4.8 kmh 30.29 in1025.7 mb 0.00 in0.0 mm 0.00 in0.0 mm 0.00 in0.0 mm
08:00 PM 26.9°F-2.8°C -5.9°F-21.1°C 23% 1.0 mph WSW1.6 kmh WSW 3.0 mph4.8 kmh 30.29 in1025.7 mb 0.00 in0.0 mm 0.00 in0.0 mm 0.00 in0.0 mm
08:05 PM 26.7°F-2.9°C -5.2°F-20.7°C 24% Calm Calm 2.0 mph3.2 kmh 30.29 in1025.7 mb 0.00 in0.0 mm 0.00 in0.0 mm 0.00 in0.0 mm
08:10 PM 26.6°F-3.0°C -5.3°F-20.7°C 24% 1.0 mph SW1.6 kmh SW 4.0 mph6.4 kmh 30.29 in1025.7 mb 0.00 in0.0 mm 0.00 in0.0 mm 0.00 in0.0 mm
08:15 PM 26.6°F-3.0°C -5.3°F-20.7°C 24% 1.0 mph SW1.6 kmh SW 3.0 mph4.8 kmh 30.29 in1025.7 mb 0.00 in0.0 mm 0.00 in0.0 mm 0.00 in0.0 mm
08:20 PM 26.6°F-3.0°C -6.1°F-21.2°C 23% Calm Calm 1.0 mph1.6 kmh 30.29 in1025.7 mb 0.00 in0.0 mm 0.00 in0.0 mm 0.00 in0.0 mm
08:25 PM 26.7°F-2.9°C -6.1°F-21.2°C 23% Calm Calm -- 30.29 in1025.7 mb 0.00 in0.0 mm 0.00 in0.0 mm 0.00 in0.0 mm
08:30 PM 26.7°F-2.9°C -6.1°F-21.2°C 23% Calm Calm 1.0 mph1.6 kmh 30.29 in1025.7 mb 0.00 in0.0 mm 0.00 in0.0 mm 0.00 in0.0 mm
08:35 PM 26.9°F-2.8°C -5.9°F-21.1°C 23% Calm Calm -- 30.29 in1025.7 mb 0.00 in0.0 mm 0.00 in0.0 mm 0.00 in0.0 mm
08:40 PM 26.9°F-2.8°C -5.0°F-20.6°C 24% Calm Calm -- 30.29 in1025.7 mb 0.00 in0.0 mm 0.00 in0.0 mm 0.00 in0.0 mm
08:45 PM 26.9°F-2.8°C -5.9°F-21.1°C 23% 1.0 mph SW1.6 kmh SW 4.0 mph6.4 kmh 30.29 in1025.7 mb 0.00 in0.0 mm 0.00 in0.0 mm 0.00 in0.0 mm
08:50 PM 26.7°F-2.9°C -6.1°F-21.2°C 23% Calm Calm 3.0 mph4.8 kmh 30.29 in1025.7 mb 0.00 in0.0 mm 0.00 in0.0 mm 0.00 in0.0 mm
08:55 PM 26.7°F-2.9°C -6.1°F-21.2°C 23% 1.0 mph SW1.6 kmh SW 4.0 mph6.4 kmh 30.29 in1025.7 mb 0.00 in0.0 mm 0.00 in0.0 mm 0.00 in0.0 mm
09:00 PM 26.6°F-3.0°C -6.1°F-21.2°C 23% Calm Calm -- 30.28 in1025.4 mb 0.00 in0.0 mm 0.00 in0.0 mm 0.00 in0.0 mm
09:05 PM 26.4°F-3.1°C -6.3°F-21.3°C 23% Calm Calm 3.0 mph4.8 kmh 30.28 in1025.4 mb 0.00 in0.0 mm 0.00 in0.0 mm 0.00 in0.0 mm
09:10 PM 26.1°F-3.3°C -6.6°F-21.4°C 23% 1.0 mph SW1.6 kmh SW 3.0 mph4.8 kmh 30.28 in1025.4 mb 0.00 in0.0 mm 0.00 in0.0 mm 0.00 in0.0 mm
09:15 PM 26.0°F-3.3°C -5.8°F-21.0°C 24% 1.0 mph SW1.6 kmh SW 4.0 mph6.4 kmh 30.28 in1025.4 mb 0.00 in0.0 mm 0.00 in0.0 mm 0.00 in0.0 mm
09:20 PM 25.8°F-3.4°C -6.0°F-21.1°C 24% Calm Calm 3.0 mph4.8 kmh 30.28 in1025.4 mb 0.00 in0.0 mm 0.00 in0.0 mm 0.00 in0.0 mm
09:25 PM 25.7°F-3.5°C -6.0°F-21.1°C 24% Calm Calm 3.0 mph4.8 kmh 30.28 in1025.4 mb 0.00 in0.0 mm 0.00 in0.0 mm 0.00 in0.0 mm
09:30 PM 25.6°F-3.6°C -5.3°F-20.7°C 25% 1.0 mph SW1.6 kmh SW 3.0 mph4.8 kmh 30.28 in1025.4 mb 0.00 in0.0 mm 0.00 in0.0 mm 0.00 in0.0 mm
09:35 PM 25.4°F-3.7°C -4.6°F-20.3°C 26% Calm Calm 1.0 mph1.6 kmh 30.28 in1025.4 mb 0.00 in0.0 mm 0.00 in0.0 mm 0.00 in0.0 mm
09:40 PM 25.1°F-3.8°C -0.6°F-18.1°C 32% Calm Calm -- 30.28 in1025.4 mb 0.00 in0.0 mm 0.00 in0.0 mm 0.00 in0.0 mm
09:45 PM 24.8°F-4.0°C -0.2°F-17.9°C 33% Calm Calm -- 30.29 in1025.7 mb 0.00 in0.0 mm 0.00 in0.0 mm 0.00 in0.0 mm
09:50 PM 24.4°F-4.2°C 0.1°F-17.7°C 34% Calm Calm -- 30.29 in1025.7 mb 0.00 in0.0 mm 0.00 in0.0 mm 0.00 in0.0 mm
09:55 PM 23.9°F-4.5°C 0.9°F-17.3°C 36% Calm Calm -- 30.29 in1025.7 mb 0.00 in0.0 mm 0.00 in0.0 mm 0.00 in0.0 mm
10:00 PM 23.5°F-4.7°C 1.7°F-16.8°C 38% Calm Calm -- 30.29 in1025.7 mb 0.00 in0.0 mm 0.00 in0.0 mm 0.00 in0.0 mm
10:05 PM 23.0°F-5.0°C 1.2°F-17.1°C 38% Calm Calm -- 30.29 in1025.7 mb 0.00 in0.0 mm 0.00 in0.0 mm 0.00 in0.0 mm
10:10 PM 22.7°F-5.2°C 2.6°F-16.3°C 41% Calm Calm -- 30.29 in1025.7 mb 0.00 in0.0 mm 0.00 in0.0 mm 0.00 in0.0 mm
10:15 PM 22.4°F-5.3°C 1.8°F-16.8°C 40% Calm Calm -- 30.29 in1025.7 mb 0.00 in0.0 mm 0.00 in0.0 mm 0.00 in0.0 mm
10:20 PM 21.9°F-5.6°C 1.3°F-17.1°C 40% Calm Calm -- 30.29 in1025.7 mb 0.00 in0.0 mm 0.00 in0.0 mm 0.00 in0.0 mm
10:25 PM 21.6°F-5.8°C 1.1°F-17.2°C 40% Calm Calm -- 30.29 in1025.7 mb 0.00 in0.0 mm 0.00 in0.0 mm 0.00 in0.0 mm
10:30 PM 21.4°F-5.9°C 2.9°F-16.2°C 44% Calm Calm 1.0 mph1.6 kmh 30.29 in1025.7 mb 0.00 in0.0 mm 0.00 in0.0 mm 0.00 in0.0 mm
10:35 PM 21.3°F-5.9°C 3.3°F-15.9°C 45% Calm Calm -- 30.29 in1025.7 mb 0.00 in0.0 mm 0.00 in0.0 mm 0.00 in0.0 mm
10:40 PM 21.0°F-6.1°C 3.5°F-15.8°C 46% Calm Calm 2.0 mph3.2 kmh 30.29 in1025.7 mb 0.00 in0.0 mm 0.00 in0.0 mm 0.00 in0.0 mm
10:45 PM 20.8°F-6.2°C 2.8°F-16.2°C 45% Calm Calm 1.0 mph1.6 kmh 30.30 in1026.1 mb 0.00 in0.0 mm 0.00 in0.0 mm 0.00 in0.0 mm
10:50 PM 20.5°F-6.4°C 1.6°F-16.9°C 43% Calm Calm -- 30.30 in1026.1 mb 0.00 in0.0 mm 0.00 in0.0 mm 0.00 in0.0 mm
10:55 PM 20.5°F-6.4°C 3.5°F-15.8°C 47% Calm Calm -- 30.30 in1026.1 mb 0.00 in0.0 mm 0.00 in0.0 mm 0.00 in0.0 mm
11:00 PM 20.3°F-6.5°C 2.9°F-16.2°C 46% Calm Calm -- 30.30 in1026.1 mb 0.00 in0.0 mm 0.00 in0.0 mm 0.00 in0.0 mm
11:05 PM 20.2°F-6.6°C 4.1°F-15.5°C 49% Calm Calm -- 30.30 in1026.1 mb 0.00 in0.0 mm 0.00 in0.0 mm 0.00 in0.0 mm
11:10 PM 20.2°F-6.6°C 4.6°F-15.2°C 50% Calm Calm -- 30.30 in1026.1 mb 0.00 in0.0 mm 0.00 in0.0 mm 0.00 in0.0 mm
11:15 PM 20.2°F-6.6°C 5.4°F-14.8°C 52% Calm Calm -- 30.29 in1025.7 mb 0.00 in0.0 mm 0.00 in0.0 mm 0.00 in0.0 mm
11:20 PM 20.2°F-6.6°C 4.6°F-15.2°C 50% Calm Calm -- 30.29 in1025.7 mb 0.00 in0.0 mm 0.00 in0.0 mm 0.00 in0.0 mm
11:25 PM 20.3°F-6.5°C 4.2°F-15.4°C 49% Calm Calm -- 30.29 in1025.7 mb 0.00 in0.0 mm 0.00 in0.0 mm 0.00 in0.0 mm
11:30 PM 20.5°F-6.4°C 4.0°F-15.6°C 48% Calm Calm -- 30.29 in1025.7 mb 0.00 in0.0 mm 0.00 in0.0 mm 0.00 in0.0 mm
11:35 PM 20.6°F-6.3°C 4.5°F-15.3°C 49% Calm Calm -- 30.29 in1025.7 mb 0.00 in0.0 mm 0.00 in0.0 mm 0.00 in0.0 mm
11:40 PM 20.6°F-6.3°C 4.9°F-15.1°C 50% Calm Calm -- 30.29 in1025.7 mb 0.00 in0.0 mm 0.00 in0.0 mm 0.00 in0.0 mm
11:45 PM 20.6°F-6.3°C 4.5°F-15.3°C 49% Calm Calm -- 30.30 in1026.1 mb 0.00 in0.0 mm 0.00 in0.0 mm 0.00 in0.0 mm
11:50 PM 20.6°F-6.3°C 4.9°F-15.1°C 50% Calm Calm -- 30.30 in1026.1 mb 0.00 in0.0 mm 0.00 in0.0 mm 0.00 in0.0 mm
11:55 PM 20.8°F-6.2°C 5.6°F-14.7°C 51% Calm Calm -- 30.30 in1026.1 mb 0.00 in0.0 mm 0.00 in0.0 mm 0.00 in0.0 mm